This is the latest recevied weather packets stored in our database for station/object K9MWD. If no packets are shown the sender has not sent any weather packets the latest 10 day(s).
| Time | Temp. | Humidity | Pressure | Rain* | Wind** | Luminosity | Snow |
|---|---|---|---|---|---|---|---|
| 1788185853 | 28.89° C | 69% | 1017.6 hPa | 0 mm | - | 337 W/m² | - |
| 1788185549 | 28.89° C | 70% | 1017.5 hPa | 0 mm | - | 316 W/m² | - |
| 1788185249 | 28.33° C | 71% | 1017.6 hPa | 0 mm | - | 300 W/m² | - |
| 1788184943 | 27.78° C | 72% | 1017.5 hPa | 0 mm | - | 280 W/m² | - |
| 1788184641 | 27.78° C | 73% | 1017.7 hPa | 0 mm | - | 260 W/m² | - |
| 1788184337 | 27.78° C | 73% | 1017.4 hPa | 0 mm | - | 87 W/m² | - |
| 1788184032 | 27.22° C | 74% | 1017.1 hPa | 0 mm | - | 225 W/m² | - |
| 1788183729 | 27.22° C | 75% | 1017.2 hPa | 0 mm | - | 141 W/m² | - |
| 1788183427 | 27.22° C | 75% | 1017.2 hPa | 0 mm | - | 191 W/m² | - |
| 1788183121 | 27.22° C | 75% | 1017.1 hPa | 0 mm | - | 175 W/m² | - |
| 1788182817 | 26.67° C | 75% | 1017 hPa | 0 mm | - | 160 W/m² | - |
| 1788182516 | 26.67° C | 76% | 1016.9 hPa | 0 mm | - | 143 W/m² | - |
| 1788182211 | 26.67° C | 76% | 1017 hPa | 0 mm | - | 130 W/m² | - |
| 1788181908 | 26.11° C | 77% | 1016.7 hPa | 0 mm | - | 115 W/m² | - |
| 1788181603 | 26.11° C | 78% | 1016.8 hPa | 0 mm | - | 101 W/m² | - |
| 1788181298 | 25.56° C | 78% | 1016.7 hPa | 0 mm | - | 88 W/m² | - |
| 1788180996 | 25.56° C | 79% | 1016.4 hPa | 0 mm | - | 77 W/m² | - |
| 1788180693 | 25.56° C | 79% | 1016.6 hPa | 0 mm | - | 67 W/m² | - |
| 1788180388 | 25.56° C | 79% | 1016.6 hPa | 0 mm | - | 54 W/m² | - |
| 1788180084 | 25° C | 79% | 1016.8 hPa | 0 mm | - | 46 W/m² | - |
| 1788179784 | 25° C | 79% | 1016.8 hPa | 0 mm | - | 38 W/m² | - |
| 1788179483 | 25° C | 80% | 1016.7 hPa | 0 mm | - | 30 W/m² | - |
| 1788179182 | 24.44° C | 80% | 1016.5 hPa | 0 mm | - | 25 W/m² | - |
| 1788178879 | 24.44° C | 81% | 1016.5 hPa | 0 mm | - | 19 W/m² | - |
| 1788178578 | 24.44° C | 81% | 1016.5 hPa | 0 mm | - | 14 W/m² | - |
* Rain latest hour (hover to see other rain measurements)
** Current wind speed in m/s (hover to see current wind gust speed)